SCP
0 0 0 0 0 0 -0 -0 -0 0 0 0 -0 0 0 0 0 -0 0 0 -0 0 0 0 -0 -0 -0 -0 -0 -0 -0 -0 -0 -0 -0 0 0 0 0 0 0 1 1 1
0 0 0 0 0 0 0 0 -0 0 -0 0 0 0 0 0 0 -0 -0 -0 -0 -0 -0 -0 -0 -0 -0 -0 -0 -0 -0 -0 -0 -0 -0 -0 0 0 0 0 1 1 1 1
0 0 0 0 0 0 0 0 -0 -0 -0 0 0 0 0 0 0 0 0 0 -0 -0 -0 -0 -0 -0 -0 -0 -0 -0 -0 0 0 0 0 0 0 0 0 0 1 1 1 1
0 0 0 0 0 0 0 0 0 -0 0 0 -0 0 0 0 0 0 0 0 -0 -0 -0 -0 -0 -0 0 0 0 0 0 0 1 1 1 1 1 1 1 1 1 1 1 1
0 0 0 0 0 0 0 0 0 0 0 1 0 0 0 0 0 0 0 -0 -0 -0 -0 -0 -0 -0 0 0 1 1 1 1 1 2 2 1 1 1 1 2 1 1 1 1
0 0 0 0 0 0 0 0 0 0 0 1 0 0 0 0 0 0 0 -0 -0 0 0 0 1 -0 0 1 1 1 1 1 2 2 1 1 1 1 1 1 0 1 0 0
0 0 0 0 0 0 0 1 0 1 1 0 0 0 0 0 0 0 0 0 0 0 0 -0 -0 -0 1 1 1 1 1 1 1 1 0 1 1 0 0 0 0 0 0 0
0 0 0 0 -0 0 0 0 0 0 1 1 0 0 0 0 0 0 0 0 0 -0 -0 -1 -1 -0 1 1 1 1 1 1 1 0 0 0 0 0 0 0 0 0 0 0
0 0 0 -0 0 0 0 0 0 0 0 0 0 0 0 0 0 0 -0 -0 0 1 2 2 3 2 1 1 1 1 1 1 1 0 0 0 0 0 0 0 0 0 0 0
0 0 0 -0 0 0 0 0 0 0 0 0 0 0 0 0 0 0 0 0 1 2 4 4 2 2 1 1 1 1 1 1 0 0 0 0 0 0 0 0 0 0 0 0
0 0 0 0 0 0 0 0 0 0 0 0 0 0 0 0 -0 1 2 4 5 5 5 2 2 2 2 1 1 1 1 1 0 0 0 0 0 0 0 0 0 0 0 0
0 0 0 0 0 0 0 0 0 0 0 0 0 0 0 0 0 2 3 3 4 4 3 2 2 2 1 1 1 1 0 0 0 0 0 0 0 0 0 0 0 -0 -0 -0
0 0 0 0 0 0 0 0 0 0 0 0 0 0 0 0 1 1 5 5 4 3 2 1 2 1 1 1 1 0 0 0 0 0 0 0 0 0 0 0 0 -0 -0 -0
0 0 0 0 0 0 0 0 0 0 0 0 0 0 0 0 0 2 2 0 3 3 2 1 1 1 1 1 1 1 0 0 0 0 0 0 0 0 0 0 0 0 -0 -0
0 0 0 0 0 0 0 0 0 0 0 0 0 0 0 0 -1 -1 1 0 0 0 1 1 1 0 0 1 1 1 0 0 0 0 0 0 0 0 0 0 0 0 0 -0
0 0 0 0 0 0 0 0 0 0 0 0 0 0 0 0 -0 -0 0 0 0 0 0 1 1 0 0 0 0 0 0 0 0 0 0 0 0 0 0 0 0 0 0 0
0 -0 0 0 0 0 0 0 0 0 0 0 0 0 0 1 0 -0 0 0 0 0 -0 1 1 1 0 0 0 0 0 0 0 0 0 0 0 0 0 0 0 0 0 0
0 0 0 0 0 0 0 0 0 0 0 0 0 0 1 0 0 -0 0 0 0 0 0 1 1 0 0 0 0 0 0 0 0 -0 -0 0 0 0 0 0 0 0 0 0
0 0 0 -0 0 0 0 0 0 0 0 0 0 1 1 0 0 0 -0 -0 -0 -0 -0 0 0 0 0 0 0 -0 0 0 0 -0 -0 0 0 0 0 0 0 0 0 0
0 0 -0 0 0 0 0 0 0 0 0 0 0 1 1 0 0 1 0 -0 -0 0 1 0 0 0 0 0 -0 -0 0 0 0 0 0 0 0 0 -0 0 0 0 0 0
0 0 -0 -0 0 0 0 0 -0 -0 0 0 0 0 0 0 0 0 0 0 0 0 0 0 0 0 0 0 0 -0 -0 -0 0 0 0 0 0 0 0 0 0 0 0 0
0 0 -0 -0 0 0 0 0 -0 0 0 0 0 0 0 0 0 0 0 0 0 0 0 0 0 0 0 0 0 0 -0 -0 0 0 0 0 0 0 0 0 0 0 0 0
0 0 0 0 -0 0 0 0 0 0 0 0 0 0 0 0 0 0 0 0 0 0 0 0 0 0 0 0 0 0 0 -0 0 0 0 0 0 0 0 0 0 0 0 0
-0 0 0 0 -0 -0 0 0 0 0 0 -0 -0 0 0 0 0 0 0 0 0 0 0 0 0 0 0 0 0 0 0 0 0 0 0 0 0 0 0 0 0 0 0 0
0 0 0 -0 0 -0 -0 0 0 -0 -0 0 0 0 0 0 0 0 0 0 0 0 0 0 0 0 0 0 0 0 0 0 0 0 0 0 0 0 0 0 0 0 0 0
0 0 0 0 -0 -0 -0 -0 0 0 0 0 0 0 0 0 0 0 0 -0 0 0 0 0 0 0 0 0 0 0 0 0 0 0 0 0 0 0 0 0 0 0 0 0
0 0 0 0 0 -0 -0 0 -0 0 -0 0 -0 0 0 0 0 0 0 0 0 0 0 0 0 0 0 0 0 0 0 0 0 0 0 0 0 0 0 0 0 0 0 0
Wind_Speed_500mb
20 17 15 4 8 15 8 4 6 4 21 28 39 17 46 79 68 67 46 18 53 59 58 58 55 53 50 46 38 35 34 32 32 30 28 30 32 34 37 38 38 37 39 41
16 20 21 16 10 14 14 12 16 11 13 14 25 18 44 49 63 62 57 37 58 53 54 55 55 57 54 50 48 43 43 41 37 33 34 35 36 35 38 41 43 43 44 43
10 14 19 13 15 19 1 3 7 15 10 29 34 16 32 25 20 7 19 26 60 60 56 54 59 59 55 52 49 49 48 50 49 46 44 43 41 38 39 45 48 51 49 45
11 9 18 13 15 16 28 22 17 45 22 28 75 29 12 3 22 18 8 25 34 67 60 56 51 54 50 51 51 51 50 47 50 51 48 47 44 44 44 46 41 39 42 41
8 12 17 16 26 23 23 27 30 33 15 11 23 16 22 17 13 12 17 54 56 75 70 65 57 53 51 46 47 49 49 49 46 44 46 39 33 27 29 34 35 36 42 46
7 15 25 6 36 56 25 6 23 21 4 9 11 9 9 25 28 40 49 78 71 97 80 74 66 56 53 48 44 43 42 38 35 29 28 30 35 33 36 35 41 43 47 52
6 5 7 21 38 32 3 10 67 13 20 8 4 19 28 36 41 45 35 36 43 47 91 77 66 60 52 42 39 31 30 31 34 39 40 41 40 39 40 42 42 43 43 43
7 6 9 42 16 11 11 28 53 86 44 39 11 16 20 22 27 19 31 31 11 52 71 74 65 63 53 44 35 35 38 39 40 37 35 27 22 22 25 29 32 32 34 38
7 4 9 3 14 10 14 27 27 48 74 68 49 28 33 30 26 16 14 63 60 110 76 66 65 60 47 47 50 50 47 42 37 26 18 16 12 9 5 10 19 26 32 37
12 7 8 8 14 9 12 24 36 30 45 59 55 66 58 60 54 31 21 72 74 72 71 63 52 46 42 48 39 38 36 30 25 18 15 13 9 8 10 17 26 33 38 40
11 12 16 23 9 6 9 15 24 23 41 41 55 63 67 52 50 23 16 38 51 52 48 44 42 42 42 34 32 33 29 23 18 18 21 19 9 7 14 19 28 40 41 45
5 21 12 26 37 33 30 38 37 33 29 19 35 46 53 65 58 33 43 44 43 40 39 37 39 39 33 35 33 28 26 24 24 21 21 16 2 9 14 17 23 33 37 42
12 30 39 36 31 37 40 30 46 61 49 50 44 42 54 49 55 40 54 53 47 42 44 44 40 39 39 35 31 27 26 29 26 21 24 19 8 7 13 13 20 29 34 36
29 32 37 37 42 43 52 57 54 59 60 51 48 50 48 51 49 45 63 47 25 35 29 26 32 34 34 35 36 34 25 31 24 26 19 12 12 10 15 14 13 20 25 29
33 49 55 63 64 56 53 52 60 57 50 53 50 52 50 46 37 27 25 23 36 35 27 22 28 29 32 34 31 32 24 27 24 23 17 12 9 17 16 14 10 13 17 18
55 57 59 54 59 59 54 53 57 53 51 34 34 44 48 39 31 22 25 36 26 55 54 36 33 33 31 37 36 31 28 24 27 24 17 12 14 13 21 23 14 17 9 16
54 60 54 59 56 54 55 59 57 57 43 44 38 28 37 30 17 22 17 38 42 9 65 43 38 36 33 27 34 32 26 16 23 26 22 13 11 15 13 15 22 24 16 9
60 62 61 63 65 67 66 63 59 58 51 40 33 21 17 21 20 21 19 35 28 9 47 34 37 42 35 30 34 37 32 17 12 25 24 13 16 20 15 18 30 33 17 8
56 62 71 71 67 69 73 67 63 61 49 40 38 21 16 19 17 11 16 22 39 64 55 47 39 28 27 27 37 33 31 26 21 19 22 27 22 14 20 15 8 10 14 15
61 69 69 64 70 67 64 62 64 56 53 39 37 23 26 35 34 36 40 43 45 48 41 33 29 28 28 34 36 27 30 32 34 30 28 28 19 10 19 16 13 19 14 7
69 72 64 60 50 43 47 54 58 54 47 46 36 21 30 33 37 46 55 50 42 35 29 29 26 25 34 38 31 31 36 28 31 38 29 33 29 22 28 24 21 13 15 12
66 59 56 49 39 38 34 41 47 49 48 50 43 29 39 40 43 53 57 38 38 39 31 34 28 23 43 30 23 19 33 24 22 35 44 42 41 34 32 33 30 24 23 17
57 53 47 33 31 28 15 18 25 36 44 44 43 39 40 40 46 58 48 40 41 30 33 34 28 34 34 28 28 21 20 21 23 10 9 25 52 38 46 36 32 16 19 35
53 41 36 29 24 20 11 19 27 35 40 46 44 23 37 47 46 25 24 43 34 25 36 33 29 20 27 34 32 29 20 17 11 6 8 9 14 11 13 23 13 23 17 13
54 38 25 30 24 35 18 22 25 23 19 22 26 39 43 34 29 27 32 30 36 36 35 27 30 33 20 21 26 30 31 25 19 23 22 19 11 9 2 5 14 13 12 11
64 38 22 20 22 19 15 5 18 20 28 23 5 11 36 39 31 16 26 48 53 40 28 27 21 17 16 22 24 19 24 26 28 25 1 3 3 17 22 32 28 9 15 25
56 40 30 35 37 28 17 15 11 4 21 35 23 11 21 34 11 26 41 45 47 37 28 20 13 5 5 12 18 15 8 9 14 6 19 8 18 7 12 6 2 7 8 9
Wind_Direction_500mb
294 316 326 88 337 340 315 74 259 10 340 317 292 247 141 157 163 163 215 237 180 183 183 186 193 201 209 214 218 220 213 215 220 229 230 235 241 242 249 254 259 263 269 271
289 291 287 284 241 258 281 15 356 317 296 332 341 154 144 168 175 177 196 216 191 192 191 191 197 203 209 215 218 219 220 224 231 236 244 249 253 254 248 248 259 267 269 273
286 329 328 311 212 230 133 137 94 307 207 331 304 305 253 126 158 345 289 258 192 201 205 206 208 209 210 215 218 221 223 224 226 234 239 244 252 254 251 248 254 258 261 264
265 309 292 269 273 236 218 160 176 257 261 214 252 246 66 35 178 171 242 285 284 203 208 209 209 208 209 212 218 221 225 222 222 228 234 241 245 250 258 260 260 257 258 259
248 255 267 272 273 275 281 219 213 223 188 339 211 120 50 64 175 248 253 264 266 226 210 211 211 213 208 207 213 217 221 226 229 232 236 243 249 248 249 248 254 266 268 269
240 238 263 335 340 334 327 314 197 218 230 84 320 188 214 154 172 164 179 250 271 238 211 209 208 208 205 209 211 216 221 226 232 233 237 231 242 248 249 252 257 261 267 270
266 252 329 337 357 336 292 307 324 356 90 33 312 238 215 166 162 150 213 208 250 248 203 205 199 200 195 195 204 213 217 210 213 214 221 229 239 251 252 264 275 278 281 282
329 267 267 8 11 51 274 335 356 342 1 11 256 221 235 179 156 207 260 323 24 227 192 185 187 190 185 186 194 199 200 208 215 221 245 251 251 261 271 278 288 296 297 293
102 235 218 330 169 153 19 35 344 342 359 344 3 307 258 220 208 220 151 197 233 197 167 166 171 178 181 190 192 195 199 204 220 220 217 235 246 252 300 344 337 334 327 319
14 196 9 324 100 354 313 287 304 338 353 346 343 337 334 251 237 258 212 189 176 161 157 159 168 176 193 194 199 197 205 201 197 199 195 175 123 76 24 2 5 354 342 332
286 31 35 43 355 303 307 321 319 298 297 309 333 318 322 336 233 186 192 177 182 175 181 177 184 187 195 191 195 188 188 189 176 164 148 139 113 39 357 1 359 354 351 350
285 341 315 331 333 310 284 297 291 281 283 286 301 296 312 322 346 208 198 196 196 189 178 179 180 191 197 199 187 183 178 165 150 139 143 142 103 337 343 337 343 349 352 356
351 327 314 309 310 304 324 322 292 291 283 272 281 282 293 312 316 283 219 207 201 202 191 184 187 189 182 182 176 171 158 156 160 164 163 177 202 317 324 308 328 351 356 9
338 340 325 315 307 304 299 295 300 303 278 262 268 280 277 293 302 312 239 343 134 198 189 187 178 181 183 177 177 172 174 173 186 199 203 229 245 249 271 295 324 0 15 21
306 310 302 294 288 289 288 290 291 295 299 266 265 271 285 278 287 319 259 253 283 291 260 201 202 191 181 178 177 172 175 191 205 211 229 224 228 218 249 263 305 340 17 29
303 301 299 286 285 280 278 278 279 286 286 289 284 269 277 286 272 288 261 225 207 231 236 197 199 194 187 182 185 189 190 203 208 214 192 213 205 224 244 257 267 302 312 3
304 305 297 289 286 278 280 274 273 270 273 281 288 315 297 261 268 292 262 185 162 192 240 201 194 203 209 191 181 180 185 196 214 195 183 203 218 253 252 283 269 261 293 345
301 295 291 286 279 277 274 272 267 257 266 264 286 316 269 243 281 279 255 195 247 169 248 214 208 203 205 198 178 182 188 177 167 176 174 196 217 247 245 275 276 252 273 284
308 302 304 294 285 274 271 266 260 255 253 258 267 295 248 249 245 242 180 173 166 187 204 198 189 187 194 183 186 196 219 204 194 200 207 217 245 246 224 261 247 290 276 286
314 307 308 296 290 273 270 256 248 254 250 257 258 300 227 217 206 196 173 175 182 182 188 188 190 187 179 183 199 205 198 223 223 217 218 224 233 227 201 217 244 291 262 253
310 310 310 311 300 279 258 257 245 247 248 253 257 261 234 223 216 201 193 186 171 175 194 190 197 194 190 200 208 222 217 220 259 222 224 221 217 226 219 220 231 236 233 230
326 324 325 325 309 294 270 253 240 236 245 249 251 258 231 235 221 203 193 203 185 185 194 201 208 210 207 197 204 228 223 235 258 241 234 241 227 237 231 221 239 248 243 238
340 337 337 333 321 306 263 247 229 239 247 258 268 283 234 230 217 213 207 209 199 196 202 202 214 200 195 198 216 212 227 243 269 257 256 246 241 240 249 243 226 235 266 252
349 352 2 354 357 10 284 249 247 256 265 272 283 231 229 235 215 208 212 206 210 209 197 211 208 192 201 218 214 222 248 267 246 214 137 99 93 185 160 162 199 223 228 223
2 350 2 15 8 4 336 288 264 276 281 265 230 243 220 224 221 227 196 168 185 195 198 196 189 197 209 203 211 223 234 237 232 239 250 249 255 242 48 259 211 235 209 218
9 0 13 22 29 30 16 340 260 274 263 227 278 195 205 199 208 239 232 181 179 182 173 155 175 200 217 209 215 207 240 243 242 236 196 191 219 229 289 277 267 286 300 284
9 35 45 40 44 47 49 104 119 284 221 215 247 206 186 192 167 58 148 154 151 154 155 158 148 167 209 191 207 236 243 287 256 253 219 296 345 269 179 213 281 45 15 349
Wind_Speed_850mb
20 17 15 4 8 15 8 4 6 4 21 28 39 17 46 79 68 67 46 18 53 59 58 58 55 53 50 46 38 35 34 32 32 30 28 30 32 34 37 38 38 37 39 41
16 20 21 16 10 14 14 12 16 11 13 14 25 18 44 49 63 62 57 37 58 53 54 55 55 57 54 50 48 43 43 41 37 33 34 35 36 35 38 41 43 43 44 43
10 14 19 13 15 19 1 3 7 15 10 29 34 16 32 25 20 7 19 26 60 60 56 54 59 59 55 52 49 49 48 50 49 46 44 43 41 38 39 45 48 51 49 45
11 9 18 13 15 16 28 22 17 45 22 28 75 29 12 3 22 18 8 25 34 67 60 56 51 54 50 51 51 51 50 47 50 51 48 47 44 44 44 46 41 39 42 41
8 12 17 16 26 23 23 27 30 33 15 11 23 16 22 17 13 12 17 54 56 75 70 65 57 53 51 46 47 49 49 49 46 44 46 39 33 27 29 34 35 36 42 46
7 15 25 6 36 56 25 6 23 21 4 9 11 9 9 25 28 40 49 78 71 97 80 74 66 56 53 48 44 43 42 38 35 29 28 30 35 33 36 35 41 43 47 52
6 5 7 21 38 32 3 10 67 13 20 8 4 19 28 36 41 45 35 36 43 47 91 77 66 60 52 42 39 31 30 31 34 39 40 41 40 39 40 42 42 43 43 43
7 6 9 42 16 11 11 28 53 86 44 39 11 16 20 22 27 19 31 31 11 52 71 74 65 63 53 44 35 35 38 39 40 37 35 27 22 22 25 29 32 32 34 38
7 4 9 3 14 10 14 27 27 48 74 68 49 28 33 30 26 16 14 63 60 110 76 66 65 60 47 47 50 50 47 42 37 26 18 16 12 9 5 10 19 26 32 37
12 7 8 8 14 9 12 24 36 30 45 59 55 66 58 60 54 31 21 72 74 72 71 63 52 46 42 48 39 38 36 30 25 18 15 13 9 8 10 17 26 33 38 40
11 12 16 23 9 6 9 15 24 23 41 41 55 63 67 52 50 23 16 38 51 52 48 44 42 42 42 34 32 33 29 23 18 18 21 19 9 7 14 19 28 40 41 45
5 21 12 26 37 33 30 38 37 33 29 19 35 46 53 65 58 33 43 44 43 40 39 37 39 39 33 35 33 28 26 24 24 21 21 16 2 9 14 17 23 33 37 42
12 30 39 36 31 37 40 30 46 61 49 50 44 42 54 49 55 40 54 53 47 42 44 44 40 39 39 35 31 27 26 29 26 21 24 19 8 7 13 13 20 29 34 36
29 32 37 37 42 43 52 57 54 59 60 51 48 50 48 51 49 45 63 47 25 35 29 26 32 34 34 35 36 34 25 31 24 26 19 12 12 10 15 14 13 20 25 29
33 49 55 63 64 56 53 52 60 57 50 53 50 52 50 46 37 27 25 23 36 35 27 22 28 29 32 34 31 32 24 27 24 23 17 12 9 17 16 14 10 13 17 18
55 57 59 54 59 59 54 53 57 53 51 34 34 44 48 39 31 22 25 36 26 55 54 36 33 33 31 37 36 31 28 24 27 24 17 12 14 13 21 23 14 17 9 16
54 60 54 59 56 54 55 59 57 57 43 44 38 28 37 30 17 22 17 38 42 9 65 43 38 36 33 27 34 32 26 16 23 26 22 13 11 15 13 15 22 24 16 9
60 62 61 63 65 67 66 63 59 58 51 40 33 21 17 21 20 21 19 35 28 9 47 34 37 42 35 30 34 37 32 17 12 25 24 13 16 20 15 18 30 33 17 8
56 62 71 71 67 69 73 67 63 61 49 40 38 21 16 19 17 11 16 22 39 64 55 47 39 28 27 27 37 33 31 26 21 19 22 27 22 14 20 15 8 10 14 15
61 69 69 64 70 67 64 62 64 56 53 39 37 23 26 35 34 36 40 43 45 48 41 33 29 28 28 34 36 27 30 32 34 30 28 28 19 10 19 16 13 19 14 7
69 72 64 60 50 43 47 54 58 54 47 46 36 21 30 33 37 46 55 50 42 35 29 29 26 25 34 38 31 31 36 28 31 38 29 33 29 22 28 24 21 13 15 12
66 59 56 49 39 38 34 41 47 49 48 50 43 29 39 40 43 53 57 38 38 39 31 34 28 23 43 30 23 19 33 24 22 35 44 42 41 34 32 33 30 24 23 17
57 53 47 33 31 28 15 18 25 36 44 44 43 39 40 40 46 58 48 40 41 30 33 34 28 34 34 28 28 21 20 21 23 10 9 25 52 38 46 36 32 16 19 35
53 41 36 29 24 20 11 19 27 35 40 46 44 23 37 47 46 25 24 43 34 25 36 33 29 20 27 34 32 29 20 17 11 6 8 9 14 11 13 23 13 23 17 13
54 38 25 30 24 35 18 22 25 23 19 22 26 39 43 34 29 27 32 30 36 36 35 27 30 33 20 21 26 30 31 25 19 23 22 19 11 9 2 5 14 13 12 11
64 38 22 20 22 19 15 5 18 20 28 23 5 11 36 39 31 16 26 48 53 40 28 27 21 17 16 22 24 19 24 26 28 25 1 3 3 17 22 32 28 9 15 25
56 40 30 35 37 28 17 15 11 4 21 35 23 11 21 34 11 26 41 45 47 37 28 20 13 5 5 12 18 15 8 9 14 6 19 8 18 7 12 6 2 7 8 9
Wind_Direction_850mb
294 316 326 88 337 340 315 74 259 10 340 317 292 247 141 157 163 163 215 237 180 183 183 186 193 201 209 214 218 220 213 215 220 229 230 235 241 242 249 254 259 263 269 271
289 291 287 284 241 258 281 15 356 317 296 332 341 154 144 168 175 177 196 216 191 192 191 191 197 203 209 215 218 219 220 224 231 236 244 249 253 254 248 248 259 267 269 273
286 329 328 311 212 230 133 137 94 307 207 331 304 305 253 126 158 345 289 258 192 201 205 206 208 209 210 215 218 221 223 224 226 234 239 244 252 254 251 248 254 258 261 264
265 309 292 269 273 236 218 160 176 257 261 214 252 246 66 35 178 171 242 285 284 203 208 209 209 208 209 212 218 221 225 222 222 228 234 241 245 250 258 260 260 257 258 259
248 255 267 272 273 275 281 219 213 223 188 339 211 120 50 64 175 248 253 264 266 226 210 211 211 213 208 207 213 217 221 226 229 232 236 243 249 248 249 248 254 266 268 269
240 238 263 335 340 334 327 314 197 218 230 84 320 188 214 154 172 164 179 250 271 238 211 209 208 208 205 209 211 216 221 226 232 233 237 231 242 248 249 252 257 261 267 270
266 252 329 337 357 336 292 307 324 356 90 33 312 238 215 166 162 150 213 208 250 248 203 205 199 200 195 195 204 213 217 210 213 214 221 229 239 251 252 264 275 278 281 282
329 267 267 8 11 51 274 335 356 342 1 11 256 221 235 179 156 207 260 323 24 227 192 185 187 190 185 186 194 199 200 208 215 221 245 251 251 261 271 278 288 296 297 293
102 235 218 330 169 153 19 35 344 342 359 344 3 307 258 220 208 220 151 197 233 197 167 166 171 178 181 190 192 195 199 204 220 220 217 235 246 252 300 344 337 334 327 319
14 196 9 324 100 354 313 287 304 338 353 346 343 337 334 251 237 258 212 189 176 161 157 159 168 176 193 194 199 197 205 201 197 199 195 175 123 76 24 2 5 354 342 332
286 31 35 43 355 303 307 321 319 298 297 309 333 318 322 336 233 186 192 177 182 175 181 177 184 187 195 191 195 188 188 189 176 164 148 139 113 39 357 1 359 354 351 350
285 341 315 331 333 310 284 297 291 281 283 286 301 296 312 322 346 208 198 196 196 189 178 179 180 191 197 199 187 183 178 165 150 139 143 142 103 337 343 337 343 349 352 356
351 327 314 309 310 304 324 322 292 291 283 272 281 282 293 312 316 283 219 207 201 202 191 184 187 189 182 182 176 171 158 156 160 164 163 177 202 317 324 308 328 351 356 9
338 340 325 315 307 304 299 295 300 303 278 262 268 280 277 293 302 312 239 343 134 198 189 187 178 181 183 177 177 172 174 173 186 199 203 229 245 249 271 295 324 0 15 21
306 310 302 294 288 289 288 290 291 295 299 266 265 271 285 278 287 319 259 253 283 291 260 201 202 191 181 178 177 172 175 191 205 211 229 224 228 218 249 263 305 340 17 29
303 301 299 286 285 280 278 278 279 286 286 289 284 269 277 286 272 288 261 225 207 231 236 197 199 194 187 182 185 189 190 203 208 214 192 213 205 224 244 257 267 302 312 3
304 305 297 289 286 278 280 274 273 270 273 281 288 315 297 261 268 292 262 185 162 192 240 201 194 203 209 191 181 180 185 196 214 195 183 203 218 253 252 283 269 261 293 345
301 295 291 286 279 277 274 272 267 257 266 264 286 316 269 243 281 279 255 195 247 169 248 214 208 203 205 198 178 182 188 177 167 176 174 196 217 247 245 275 276 252 273 284
308 302 304 294 285 274 271 266 260 255 253 258 267 295 248 249 245 242 180 173 166 187 204 198 189 187 194 183 186 196 219 204 194 200 207 217 245 246 224 261 247 290 276 286
314 307 308 296 290 273 270 256 248 254 250 257 258 300 227 217 206 196 173 175 182 182 188 188 190 187 179 183 199 205 198 223 223 217 218 224 233 227 201 217 244 291 262 253
310 310 310 311 300 279 258 257 245 247 248 253 257 261 234 223 216 201 193 186 171 175 194 190 197 194 190 200 208 222 217 220 259 222 224 221 217 226 219 220 231 236 233 230
326 324 325 325 309 294 270 253 240 236 245 249 251 258 231 235 221 203 193 203 185 185 194 201 208 210 207 197 204 228 223 235 258 241 234 241 227 237 231 221 239 248 243 238
340 337 337 333 321 306 263 247 229 239 247 258 268 283 234 230 217 213 207 209 199 196 202 202 214 200 195 198 216 212 227 243 269 257 256 246 241 240 249 243 226 235 266 252
349 352 2 354 357 10 284 249 247 256 265 272 283 231 229 235 215 208 212 206 210 209 197 211 208 192 201 218 214 222 248 267 246 214 137 99 93 185 160 162 199 223 228 223
2 350 2 15 8 4 336 288 264 276 281 265 230 243 220 224 221 227 196 168 185 195 198 196 189 197 209 203 211 223 234 237 232 239 250 249 255 242 48 259 211 235 209 218
9 0 13 22 29 30 16 340 260 274 263 227 278 195 205 199 208 239 232 181 179 182 173 155 175 200 217 209 215 207 240 243 242 236 196 191 219 229 289 277 267 286 300 284
9 35 45 40 44 47 49 104 119 284 221 215 247 206 186 192 167 58 148 154 151 154 155 158 148 167 209 191 207 236 243 287 256 253 219 296 345 269 179 213 281 45 15 349